Wind_Speed
28 25 21 19 16 13 9 8 5 3 3 4 6 7 7 5 6 6 5 9 3 3 4 6 5 3 1 2 2 4 4 2 3 2 1 3 1 0 3 3 6 6 5 4 3 3 5 5 3 1 4 6 6 6
31 27 23 20 18 15 12 11 8 6 4 4 5 6 7 6 5 6 3 6 9 5 3 6 9 7 7 6 3 3 3 2 3 3 2 2 1 1 2 3 3 2 5 1 2 4 2 6 6 6 7 4 4 6
34 31 26 22 20 17 17 15 12 9 5 4 5 7 9 7 5 6 6 5 3 3 3 3 3 6 5 6 5 2 2 6 3 2 3 3 2 3 2 4 5 5 5 3 3 2 7 8 9 10 8 7 9 8
36 33 27 24 23 22 19 17 14 10 7 5 5 4 8 9 8 6 5 5 2 2 1 2 3 4 4 5 2 4 3 4 1 1 1 2 1 3 2 3 1 3 7 3 7 8 5 7 10 12 15 13 12 12
39 33 28 27 26 24 20 17 14 11 10 7 6 5 7 10 14 13 13 9 6 2 1 4 6 4 5 3 4 3 3 1 1 2 2 2 3 2 3 2 3 4 5 4 4 7 5 8 9 11 12 11 9 11
38 33 30 31 29 25 21 17 15 12 10 8 6 7 8 8 4 1 1 7 7 2 1 2 3 3 5 5 4 3 2 1 2 1 2 2 3 2 1 3 4 5 4 7 3 5 6 9 8 13 11 11 11 9
40 35 34 33 29 25 22 19 17 14 11 9 7 7 10 8 6 3 2 1 6 5 1 2 2 2 2 3 2 3 1 1 1 2 1 1 2 3 2 4 2 7 6 5 4 5 6 6 9 11 13 15 15 17
41 38 38 35 30 27 24 22 20 18 14 12 12 12 14 12 8 5 3 3 6 4 5 2 2 3 2 2 3 0 2 1 2 1 2 1 2 0 4 8 9 6 2 5 4 5 6 7 10 9 16 16 9 7
43 42 40 36 31 28 27 25 23 21 18 16 18 17 9 4 2 1 2 3 7 4 2 0 3 3 3 2 2 1 2 2 2 1 0 1 3 5 7 6 8 4 1 3 5 6 6 7 8 8 9 10 8 7
48 45 41 37 33 30 28 25 24 22 20 23 9 4 3 2 9 5 1 2 3 2 2 1 1 2 1 1 1 3 1 2 2 2 2 2 5 15 12 12 6 2 2 4 5 6 6 7 7 7 8 7 6 5
52 48 43 38 35 32 30 28 26 25 20 3 3 3 6 7 1 2 2 1 2 1 3 2 3 3 0 2 2 4 1 2 2 3 2 2 3 5 11 8 8 8 6 4 5 5 7 8 7 6 7 10 10 5
52 47 42 40 36 34 33 30 31 14 9 8 14 12 5 2 1 1 2 1 2 2 3 2 2 1 2 1 3 2 1 1 2 3 1 4 5 9 2 5 6 4 6 5 8 8 10 11 12 9 10 10 11 9
51 47 43 41 38 37 34 32 21 18 26 10 5 3 3 1 3 4 5 3 3 4 3 3 4 3 2 2 2 3 3 4 1 2 3 4 5 2 2 4 4 7 8 9 8 13 17 14 14 15 11 13 12 11
50 46 44 42 39 36 34 30 25 18 3 3 4 5 5 4 5 4 2 3 3 5 6 5 3 2 2 3 2 3 2 1 2 3 5 4 5 2 2 2 3 5 5 7 9 14 11 12 12 16 15 14 11 12
49 46 44 41 39 36 35 30 22 5 3 3 2 5 5 3 1 0 5 4 3 7 6 4 2 2 1 2 2 2 3 4 5 4 3 3 5 5 5 5 5 5 5 6 12 11 11 15 15 12 14 15 13 13
48 43 32 40 38 36 32 29 8 3 3 3 0 3 2 3 5 4 3 4 3 5 5 2 3 3 4 3 4 6 4 6 3 4 3 3 5 6 6 7 7 10 11 13 14 16 16 15 12 13 12 13 15 14
40 15 41 41 39 36 32 13 3 3 3 2 3 4 3 3 5 6 5 6 9 7 4 3 6 6 3 3 4 4 4 4 4 3 4 6 6 10 6 7 9 12 12 14 16 17 18 18 14 13 7 15 16 17
24 42 47 44 43 35 11 3 4 3 3 2 3 5 6 3 1 5 3 7 5 5 5 4 3 5 5 5 4 4 4 5 5 8 9 7 9 13 10 9 13 16 17 18 19 18 19 18 11 12 15 17 15 15
44 50 47 47 35 10 3 2 3 3 2 3 4 2 5 3 1 2 3 5 7 3 1 0 4 3 8 5 9 9 9 8 10 10 6 9 13 14 15 17 17 17 17 17 17 13 15 15 16 17 16 14 15 17
46 49 48 38 23 5 4 2 3 3 4 4 3 4 3 2 4 4 3 4 5 2 4 4 6 8 6 7 8 8 7 7 8 10 10 7 12 15 15 14 13 17 17 17 17 18 16 15 16 18 18 17 15 15
43 40 34 23 5 7 3 3 3 2 3 4 5 4 2 2 4 5 5 3 3 3 5 7 10 12 20 21 22 22 18 16 9 8 10 8 11 14 14 17 19 17 14 11 7 11 14 14 18 18 18 19 19 17
30 32 11 6 4 4 3 5 3 3 2 1 4 4 3 4 3 4 2 4 4 9 8 9 10 11 11 14 17 21 21 19 17 15 17 16 6 4 7 13 13 8 10 11 12 11 15 18 17 16 15 14 15 15
26 13 6 3 3 3 2 9 3 5 4 5 4 3 3 3 4 5 3 4 6 9 12 14 19 24 18 23 24 24 24 21 12 14 14 13 13 12 12 14 14 11 5 12 11 13 15 18 19 19 12 9 10 12
16 4 3 4 3 4 3 3 3 3 4 5 4 4 4 5 3 3 3 6 11 7 8 11 14 9 10 13 8 9 15 16 14 11 6 7 5 8 10 11 12 11 12 12 13 16 15 15 16 14 11 12 14 15
6 4 4 4 3 4 6 6 4 4 4 4 5 3 3 3 4 4 4 4 4 7 7 7 6 7 6 6 3 8 7 3 1 3 7 6 8 10 10 8 10 11 12 14 13 13 13 14 14 15 13 13 14 14
4 7 9 8 5 5 6 5 7 5 4 5 5 3 2 3 4 5 4 4 4 3 2 2 1 2 3 2 2 0 1 2 2 4 9 9 6 5 5 6 4 7 7 9 13 14 15 15 14 15 14 13 14 13
6 5 4 2 4 4 3 3 4 4 6 6 4 4 3 4 6 4 3 4 3 4 4 5 6 4 2 1 1 1 2 3 5 7 9 8 7 6 6 6 7 9 12 13 12 12 14 15 15 14 13 11 12 14
3 5 7 8 4 5 3 4 6 7 4 4 4 5 6 7 5 3 2 5 8 8 7 6 6 8 7 5 4 4 3 4 6 8 9 9 5 3 1 5 7 10 11 12 11 12 13 14 14 12 9 9 10 11
4 4 6 6 3 3 4 5 5 4 4 5 4 5 5 4 2 3 5 8 10 8 8 8 9 9 7 6 6 5 4 4 4 3 3 2 2 2 6 7 8 9 10 11 9 9 9 10 10 8 6 6 8 11
5 6 5 8 5 8 6 5 4 5 4 5 3 1 1 1 5 7 10 11 12 10 13 12 12 14 11 10 9 10 7 4 2 2 2 1 2 4 5 5 7 9 11 9 7 7 7 9 9 8 4 2 7 11
4 7 4 7 6 5 6 4 2 2 1 3 3 4 5 1 2 8 14 13 12 11 10 9 10 10 8 7 7 5 5 6 4 3 2 1 2 3 6 8 9 9 8 8 6 6 7 7 7 5 3 3 4 8
6 7 6 6 4 2 1 3 4 4 4 4 4 3 2 1 3 4 7 14 12 9 11 12 12 11 11 7 7 7 6 10 7 3 1 2 4 6 7 8 8 7 6 7 7 6 5 5 5 4 3 1 3 5
1 1 1 3 3 4 4 4 5 3 3 3 4 4 4 4 5 2 6 10 7 7 9 11 8 8 10 9 9 8 7 6 5 0 3 6 8 9 8 6 4 4 5 5 4 4 4 4 3 2 2 2 3 5
Wind_Direction
202 202 205 209 212 220 230 224 221 183 148 96 68 59 57 73 81 108 62 42 45 59 61 9 12 37 22 296 188 113 133 194 162 253 245 209 211 45 335 281 166 170 174 197 197 225 268 115 99 271 269 319 315 357
202 201 201 213 212 213 203 200 204 185 172 123 90 68 64 66 108 103 73 45 69 59 86 71 80 64 51 22 333 161 5 133 219 221 198 27 19 222 272 264 67 237 215 223 196 207 308 195 222 294 33 6 332 306
202 201 202 206 206 201 193 187 191 189 188 161 110 71 58 68 93 107 103 51 58 140 121 170 109 67 69 36 19 358 133 4 59 57 343 13 256 353 256 242 258 225 207 205 13 269 325 324 358 349 340 321 314 303
204 200 201 204 193 187 185 183 182 184 184 176 146 108 67 54 75 108 108 60 40 351 130 124 140 94 28 27 59 66 85 76 47 334 294 131 199 229 256 314 303 298 328 260 264 298 304 14 351 335 327 324 318 313
203 198 199 195 185 182 181 185 179 184 186 180 169 138 110 83 81 79 80 59 86 33 106 117 116 70 39 57 118 139 193 231 229 191 202 195 227 281 324 299 229 220 256 250 281 16 352 331 320 308 319 314 328 319
197 198 195 190 183 179 177 176 166 162 164 161 162 148 131 114 101 354 127 22 41 77 113 142 110 93 63 89 106 137 135 184 256 190 211 306 82 73 38 284 262 282 312 55 351 340 322 316 337 336 319 313 311 308
194 196 191 186 178 173 169 167 158 155 151 147 138 125 122 111 82 37 32 27 20 32 294 103 185 115 108 153 131 133 203 171 250 223 201 230 165 157 204 239 250 316 43 25 312 12 338 325 314 330 327 321 319 313
191 188 185 179 172 168 166 163 155 151 152 140 131 124 115 96 79 80 40 36 46 65 4 136 151 157 223 175 130 12 150 142 176 341 71 261 136 178 252 246 281 263 87 267 12 352 297 312 333 330 335 331 316 313
185 183 180 175 169 168 165 162 156 153 149 135 123 113 84 54 77 59 113 69 34 15 111 197 158 163 196 74 89 107 332 181 55 339 264 329 187 223 234 249 257 252 227 23 322 301 311 335 324 331 327 331 325 328
180 178 176 171 169 167 161 156 152 153 146 136 121 170 101 69 125 114 9 128 19 17 29 274 34 105 315 177 72 128 344 64 214 180 100 241 261 261 257 252 267 275 227 268 301 314 322 311 322 326 320 320 316 324
175 174 171 167 168 163 158 153 153 146 143 191 130 79 112 138 307 245 165 162 138 266 186 215 227 153 181 230 99 16 32 116 236 125 237 261 249 248 241 225 220 217 208 251 283 301 289 286 300 312 309 310 317 317
169 166 164 165 166 161 157 157 155 148 164 158 115 115 124 206 8 73 230 142 235 230 131 177 154 355 82 302 113 139 141 82 270 123 218 254 254 255 216 172 197 197 224 248 279 292 307 293 291 293 295 290 291 280
163 162 163 164 163 160 160 159 152 151 128 102 77 67 103 131 157 199 188 202 196 186 147 140 146 139 137 271 124 132 174 217 87 221 240 240 295 349 191 182 224 247 259 256 263 285 287 298 299 290 292 299 286 265
158 158 161 161 161 160 160 157 157 140 113 93 128 136 201 179 226 189 232 182 102 135 150 132 128 124 65 149 133 192 213 237 229 230 236 243 246 123 133 226 238 261 297 275 255 267 294 301 300 296 292 293 281 264
153 156 157 159 160 161 162 159 152 102 105 115 139 173 192 259 63 294 68 105 104 139 130 104 77 139 124 131 192 210 203 234 223 228 242 290 356 353 337 324 311 300 297 298 297 285 284 285 278 279 290 293 274 258
149 148 154 160 160 159 158 156 129 81 72 99 310 167 127 187 199 186 167 136 154 150 142 157 147 165 189 199 178 209 222 217 233 209 240 327 323 330 322 316 311 311 310 303 295 297 291 284 281 269 272 281 274 249
142 141 160 159 157 154 150 137 102 55 128 148 220 232 208 217 212 179 170 164 166 163 181 135 186 200 134 210 210 223 209 218 262 300 297 280 291 289 293 308 304 297 290 287 291 291 292 295 291 272 259 269 273 249
131 150 156 155 151 141 132 90 108 128 149 205 211 211 215 252 144 126 161 140 155 182 212 211 183 183 194 200 211 227 245 259 273 281 283 289 295 290 306 298 301 295 287 285 280 286 291 288 278 255 261 270 264 251
142 150 155 153 146 123 111 114 120 154 163 148 249 207 185 223 322 103 141 153 214 248 246 153 236 217 224 243 257 263 270 277 279 277 270 300 315 310 308 300 296 290 285 289 295 275 280 291 284 278 259 260 234 237
147 151 152 149 144 97 91 69 145 150 174 180 228 197 192 203 172 175 198 188 186 187 227 227 230 245 255 246 255 267 275 279 290 293 292 293 290 290 285 286 289 290 291 287 285 284 276 275 279 276 263 256 240 229
138 146 145 145 92 83 93 133 152 194 153 185 187 192 218 264 239 235 238 186 210 211 236 238 248 249 253 259 264 265 270 275 272 270 282 286 275 279 285 285 284 283 279 280 281 286 285 279 280 275 268 239 233 237
136 140 119 115 78 65 91 183 122 151 156 134 159 191 192 203 216 232 201 231 226 238 231 246 251 256 259 259 265 267 270 273 281 290 293 287 282 275 274 280 282 274 281 285 289 290 294 300 300 300 296 278 226 218
127 116 74 92 104 129 138 158 139 166 152 178 167 184 212 217 203 163 211 218 242 243 243 244 249 255 259 266 272 275 275 271 271 269 267 268 273 279 287 288 290 288 288 291 306 321 313 307 303 300 273 255 232 228
121 75 112 137 150 153 151 164 150 164 170 175 180 199 196 205 164 188 241 249 247 250 242 244 240 249 252 249 253 262 269 265 258 253 280 311 288 283 288 295 301 309 307 302 311 300 297 298 300 286 270 265 243 226
100 157 153 166 169 151 166 140 167 175 173 179 202 197 204 175 166 206 237 265 241 241 242 239 235 238 250 259 270 269 278 206 322 296 294 299 303 303 296 301 312 309 308 296 295 287 292 304 304 291 269 253 242 234
179 182 184 178 154 168 162 156 177 168 174 181 193 216 143 163 182 231 236 216 227 226 180 113 50 331 297 290 281 356 345 139 223 281 284 289 294 307 300 293 298 316 341 325 309 302 299 296 293 288 277 262 234 227
185 175 172 223 158 165 175 183 154 164 181 190 178 156 153 212 227 234 227 199 160 157 178 186 194 196 215 188 223 234 235 247 247 264 287 293 282 274 273 288 307 317 318 320 317 324 318 308 302 291 272 253 234 220
193 150 159 178 183 183 169 184 181 184 177 179 165 181 193 208 226 206 158 157 169 171 180 194 210 224 195 198 214 220 251 259 280 279 278 265 245 214 313 320 318 318 317 314 329 330 330 321 314 304 276 253 225 216
185 168 134 171 173 158 208 198 212 214 183 170 190 189 217 221 162 139 163 175 182 180 184 197 213 219 210 203 215 217 220 241 284 283 272 287 158 95 13 351 340 339 335 334 334 341 343 345 341 332 295 262 230 200
193 183 180 174 190 204 195 196 218 202 204 205 203 263 266 230 188 202 180 179 182 198 212 218 203 190 202 191 194 193 202 210 214 339 311 360 33 344 325 332 333 334 334 329 335 346 359 360 5 13 31 128 172 165
168 192 222 187 212 204 212 200 147 93 135 206 207 225 252 359 243 226 215 214 212 206 195 185 192 203 208 199 193 183 156 172 178 172 197 222 297 317 316 319 320 321 327 336 331 339 344 353 352 358 23 83 135 153
182 201 211 211 214 119 79 156 168 200 195 200 209 175 128 142 252 206 205 193 189 199 209 207 196 195 193 185 178 181 162 169 178 174 329 330 325 309 296 312 315 320 325 329 325 329 339 343 348 345 334 210 190 176
179 156 348 239 161 180 188 175 190 214 187 216 228 189 181 199 240 153 183 185 195 209 201 193 187 164 168 175 176 172 170 168 157 115 317 306 305 299 280 282 293 309 326 332 343 352 345 333 331 336 331 275 193 178
Height
765 770 775 779 781 785 787 789 790 790 790 788 788 786 786 786 785 785 788 786 786 787 797 796 796 796 796 796 799 809 815 817 820 821 818 814 820 812 814 802 817 824 832 833 832 834 832 806 810 814 806 801 801 802
760 764 769 774 777 780 782 787 791 790 790 789 788 788 786 787 787 787 789 789 788 791 800 801 803 804 805 807 805 805 807 805 805 812 808 812 820 819 815 824 802 822 810 821 816 818 800 802 804 801 803 805 803 801
754 758 764 768 772 776 779 782 788 789 791 791 788 789 788 787 788 789 789 790 790 793 801 802 804 807 806 807 808 809 804 809 807 813 813 818 818 813 820 813 806 802 799 815 812 801 801 799 800 801 800 800 798 796
747 752 758 763 767 772 777 780 783 787 790 791 789 790 789 790 791 790 791 791 793 793 795 806 806 806 808 808 808 810 812 813 813 814 815 820 826 810 813 810 814 810 806 804 804 801 799 801 802 801 797 796 794 791
741 747 752 758 762 768 773 779 780 785 788 790 790 790 789 792 794 794 793 794 794 797 797 801 805 809 809 809 809 810 812 813 814 815 818 822 817 817 815 814 815 808 804 807 807 804 806 805 803 801 798 794 793 791
735 742 747 754 759 764 769 777 777 783 787 789 791 790 789 791 796 798 797 798 797 796 796 805 809 809 809 809 810 811 811 813 814 814 815 813 816 820 832 826 799 795 794 798 803 801 802 801 799 799 797 793 789 787
728 736 744 751 756 761 767 773 776 782 787 790 792 792 790 793 795 800 802 802 799 798 797 804 804 809 810 809 811 813 814 813 814 813 815 814 815 820 826 822 795 794 796 798 799 800 803 801 798 795 793 789 786 785
720 730 739 747 753 759 764 771 774 780 786 788 789 791 792 796 799 802 804 802 801 802 803 811 803 806 810 806 810 813 812 815 817 814 819 819 820 819 825 800 797 793 794 796 797 799 800 797 796 794 792 788 784 782
713 724 734 742 750 756 762 767 771 779 784 787 790 794 794 799 801 803 804 803 804 808 813 813 812 805 808 807 810 814 814 815 821 822 817 820 817 822 798 797 793 790 793 795 797 797 796 796 794 792 789 786 784 782
706 718 729 739 748 756 761 767 772 780 786 787 789 793 797 802 804 804 805 803 806 808 811 809 805 808 809 810 812 816 821 821 822 820 821 823 812 797 793 789 789 791 792 793 795 796 795 794 792 790 788 784 782 780
701 712 724 735 748 754 759 765 774 780 787 789 788 795 801 804 807 805 802 806 807 810 807 809 806 804 810 811 813 818 820 821 821 821 824 815 810 787 780 783 785 787 788 790 792 791 790 790 788 786 784 782 779 778
697 709 722 735 746 753 758 765 773 780 781 784 785 794 802 805 804 807 805 805 811 806 806 808 810 808 813 811 812 823 822 829 826 819 825 819 793 780 777 780 781 784 787 788 788 787 786 785 783 782 780 778 776 775
695 705 721 734 744 751 757 766 774 778 781 783 788 798 801 808 810 808 809 804 804 802 804 807 812 812 815 815 815 821 824 824 818 819 815 801 782 777 777 779 781 782 782 783 783 783 781 779 778 777 775 774 773 772
693 706 722 733 743 751 760 769 774 778 780 785 793 805 798 805 798 785 782 785 791 795 802 805 812 811 813 815 816 823 817 818 818 818 805 787 778 776 776 776 777 778 778 778 777 776 775 774 773 773 772 770 769 768
695 711 722 734 742 751 762 768 774 777 779 788 788 791 796 788 784 781 780 789 792 797 801 810 815 814 819 821 820 818 820 817 811 800 785 778 776 776 776 775 775 774 774 773 772 771 770 769 768 767 768 767 766 764
700 715 724 734 743 753 763 771 777 777 780 787 791 786 781 784 785 787 787 789 793 796 801 804 811 814 812 813 819 818 812 804 791 784 779 778 777 776 775 774 773 772 771 770 768 767 765 764 762 761 762 763 762 761
698 706 722 735 746 757 765 772 777 781 786 788 786 781 779 779 778 781 783 786 791 797 798 802 809 807 807 811 809 801 793 785 780 777 776 775 774 772 771 770 769 767 765 764 763 762 761 759 758 757 757 757 757 756
696 708 722 734 746 759 766 769 775 781 786 786 787 781 780 777 775 777 780 784 789 794 794 794 791 799 801 801 792 783 779 775 773 773 772 770 769 768 767 765 764 762 760 758 757 756 756 754 753 753 752 752 752 751
697 710 725 737 745 751 763 771 774 778 780 781 780 775 779 779 779 779 782 784 786 788 790 795 793 786 779 775 775 774 773 772 770 767 766 765 765 764 763 761 758 756 754 753 752 750 749 749 749 747 747 747 746 746
706 719 730 739 745 750 762 771 773 775 776 776 774 775 778 776 775 776 779 782 786 790 793 789 780 775 773 771 769 768 767 766 765 763 761 762 761 759 757 754 753 751 749 747 746 745 744 743 744 743 742 742 742 741
718 729 736 740 747 752 761 769 772 772 772 771 771 774 778 776 776 775 776 778 782 782 779 772 770 767 766 766 766 763 760 761 760 759 756 755 754 753 751 749 748 746 744 743 741 740 740 739 738 737 735 734 735 736
718 728 737 745 751 756 763 766 767 769 771 769 771 772 774 776 776 775 772 774 775 768 762 760 760 759 760 758 756 756 754 752 751 750 749 749 748 747 745 744 743 741 740 739 738 738 736 735 734 732 730 730 729 731
721 732 741 747 753 758 762 764 767 770 770 772 772 773 772 770 767 765 770 764 756 750 752 752 751 752 752 750 749 748 748 746 745 744 743 742 741 741 741 740 739 738 737 736 736 736 735 734 731 729 726 727 727 728
727 735 742 746 750 752 761 759 763 765 765 768 768 769 763 764 760 762 761 750 740 743 743 742 743 743 742 740 739 738 738 737 736 736 737 738 738 737 737 736 736 736 735 734 735 734 732 730 727 725 724 724 723 724
733 741 743 744 748 750 751 754 757 757 757 757 756 756 754 752 758 760 754 736 734 734 733 733 734 734 734 732 732 733 733 733 735 736 736 737 736 735 735 735 734 734 733 732 732 730 728 726 724 722 720 720 721 721
730 733 736 736 739 740 742 746 747 747 747 750 750 750 749 752 755 753 739 729 727 727 727 728 730 731 730 730 731 732 732 733 734 735 735 735 735 735 735 735 733 732 731 731 730 728 725 723 720 719 717 716 717 719
722 724 728 727 729 730 734 733 734 736 741 743 741 747 750 756 747 732 722 720 723 725 725 726 727 729 730 731 731 731 732 733 734 734 734 733 734 734 734 733 732 731 730 729 727 725 722 719 717 715 713 713 713 715
714 717 720 726 725 724 727 725 726 728 730 730 733 741 743 736 726 715 715 718 719 722 724 725 727 728 727 728 729 730 731 731 731 731 731 731 731 732 732 732 731 730 728 727 725 723 721 718 715 712 711 711 711 712
710 710 714 722 722 721 722 721 721 718 716 719 722 724 723 714 710 712 714 717 720 722 723 724 724 726 726 725 727 728 729 730 730 730 730 730 729 732 731 731 730 728 727 725 723 722 720 717 714 712 710 710 710 712
706 705 707 712 714 712 709 708 710 709 709 708 709 710 710 709 709 710 711 713 716 717 717 719 719 721 722 722 723 726 727 728 728 729 729 729 730 730 730 730 729 728 726 724 722 721 719 717 715 713 712 711 711 712
698 701 699 698 702 698 700 701 705 706 707 707 706 708 706 707 707 706 707 709 711 713 714 715 717 718 719 720 721 723 725 727 727 728 729 729 729 728 728 728 727 726 724 723 721 720 719 718 717 716 715 714 714 715
692 693 692 693 693 699 700 701 704 706 706 706 704 705 706 708 708 703 703 705 707 708 709 711 713 714 716 717 719 720 722 723 725 726 727 727 727 727 727 726 726 724 723 722 721 720 719 719 718 717 717 717 717 718
690 692 693 693 699 701 701 702 702 702 701 701 700 697 700 702 701 700 701 702 704 705 706 708 709 711 714 716 718 720 721 722 723 724 725 725 725 724 724 724 723 723 722 721 721 720 720 719 719 718 718 717 718 718